Menominee, MI

2:30 AM CDT on July 24, 2017 (GMT -0500)
Menominee-Marinette Twin County

Weather History for KMNM - April, 2014

Change the Weather History Date:

Tuesday, April 22, 2014

  Actual Average Record
Temperature  
Mean Temperature 40 °F -  
Max Temperature 46 °F 58 °F 82 °F (1980)
Min Temperature 32 °F 36 °F 21 °F (1986)
Degree Days  
Heating Degree Days 26    
Moisture  
Dew Point 27 °F    
Average Humidity 57    
Maximum Humidity 75    
Minimum Humidity 46    
Precipitation  
Precipitation 0.00 in - - ()
Sea Level Pressure  
Sea Level Pressure 29.96 in    
Wind  
Wind Speed 13 mph (NNW)    
Max Wind Speed 21 mph    
Max Gust Speed 31 mph    
Visibility 10 miles    
Events      
Averages and records for this station are not official NWS values.
T = Trace of Precipitation, MM = Missing Value Source: NWS Daily Summary

Daily Weather History Graph

Daily Weather History Graph

Search for Another Location

Airport or City:

Trip Planner

Search our weather history database for the weather conditions in past years. The results will help you decide how hot, cold, wet, or windy it might be!

Date:

Astronomy

Apr. 22, 2014 Rise Set
Actual Time 5:53 AM CDT 7:45 PM CDT
Civil Twilight 5:22 AM CDT 8:16 PM CDT
Nautical Twilight 4:43 AM CDT 8:55 PM CDT
Astronomical Twilight 4:02 AM CDT 9:37 PM CDT
Moon 2:01 AM CDT (4/22) 12:27 PM CDT (4/22)
Length of Visible Light 14h 54m
Length of Day
13h 51m
Last Quarter, 46% of the Moon is Illuminated
Apr 22
Last Quarter
Apr 29
New
May 6
First Quarter
May 14
Full
May 21
Last Quarter

Hourly Weather History & Observations

Time (CDT) Temp. Windchill Dew Point Humidity Pressure Visibility Wind Dir Wind Speed Gust Speed Precip Events Conditions
12:15 AM 42.8 °F 36.2 °F 30.2 °F 61% 29.86 in 10.0 mi NNW 12.7 mph 18.4 mph N/A   Clear
12:35 AM 42.8 °F 35.8 °F 30.2 °F 61% 29.86 in 10.0 mi North 13.8 mph 18.4 mph N/A   Clear
12:55 AM 42.8 °F 35.8 °F 28.4 °F 57% 29.86 in 10.0 mi NNW 13.8 mph 20.7 mph N/A   Clear
1:15 AM 42.8 °F 35.8 °F 28.4 °F 57% 29.86 in 10.0 mi NNW 13.8 mph 19.6 mph N/A   Scattered Clouds
1:35 AM 42.8 °F 35.4 °F 28.4 °F 57% 29.86 in 10.0 mi NNW 15.0 mph 23.0 mph N/A   Mostly Cloudy
1:55 AM 42.8 °F 36.6 °F 28.4 °F 57% 29.86 in 10.0 mi NNW 11.5 mph 16.1 mph N/A   Mostly Cloudy
2:15 AM 41.0 °F 33.9 °F 28.4 °F 61% 29.86 in 10.0 mi NNW 12.7 mph 23.0 mph N/A   Overcast
2:35 AM 41.0 °F 34.3 °F 28.4 °F 61% 29.87 in 10.0 mi North 11.5 mph 20.7 mph N/A   Mostly Cloudy
2:55 AM 39.2 °F 32.5 °F 26.6 °F 61% 29.87 in 10.0 mi NW 10.4 mph 16.1 mph N/A   Partly Cloudy
3:15 AM 39.2 °F 33.0 °F 26.6 °F 61% 29.87 in 10.0 mi NNW 9.2 mph 20.7 mph N/A   Clear
3:35 AM 39.2 °F 32.5 °F 26.6 °F 61% 29.87 in 10.0 mi NNW 10.4 mph 19.6 mph N/A   Clear
3:55 AM 39.2 °F 33.0 °F 26.6 °F 61% 29.88 in 10.0 mi NNW 9.2 mph 17.3 mph N/A   Clear
4:15 AM 39.2 °F 33.6 °F 26.6 °F 61% 29.88 in 10.0 mi NW 8.1 mph - N/A   Scattered Clouds
4:35 AM 39.2 °F 32.0 °F 28.4 °F 65% 29.88 in 10.0 mi NNW 11.5 mph - N/A   Overcast
5:15 AM 37.4 °F 31.4 °F 26.6 °F 65% 29.88 in 10.0 mi NNW 8.1 mph - N/A   Mostly Cloudy
5:35 AM 39.2 °F 32.5 °F 26.6 °F 61% 29.88 in 10.0 mi NNW 10.4 mph 18.4 mph N/A   Overcast
5:55 AM 39.2 °F 32.5 °F 26.6 °F 61% 29.89 in 10.0 mi NNW 10.4 mph - N/A   Overcast
6:15 AM 39.2 °F 31.6 °F 28.4 °F 65% 29.90 in 10.0 mi NNW 12.7 mph 18.4 mph N/A   Overcast
6:35 AM 39.2 °F 30.5 °F 28.4 °F 65% 29.90 in 10.0 mi NNW 16.1 mph 21.9 mph N/A   Overcast
6:55 AM 39.2 °F 31.2 °F 28.4 °F 65% 29.91 in 10.0 mi NNW 13.8 mph 21.9 mph N/A   Overcast
7:15 AM 39.2 °F 30.8 °F 26.6 °F 61% 29.91 in 10.0 mi NNW 15.0 mph 21.9 mph N/A   Overcast
7:35 AM 39.2 °F 30.5 °F 26.6 °F 61% 29.91 in 10.0 mi NNW 16.1 mph 25.3 mph N/A   Overcast
7:55 AM 41.0 °F 33.1 °F 28.4 °F 61% 29.91 in 10.0 mi NNW 15.0 mph 20.7 mph N/A   Mostly Cloudy
8:15 AM 41.0 °F 33.5 °F 28.4 °F 61% 29.91 in 10.0 mi NNW 13.8 mph 27.6 mph N/A   Mostly Cloudy
8:35 AM 41.0 °F 32.5 °F 26.6 °F 57% 29.92 in 10.0 mi NNW 17.3 mph 24.2 mph N/A   Overcast
8:55 AM 41.0 °F 31.6 °F 28.4 °F 61% 29.92 in 10.0 mi North 20.7 mph 26.5 mph N/A   Overcast
9:15 AM 42.8 °F 34.8 °F 28.4 °F 57% 29.92 in 10.0 mi NNW 17.3 mph 23.0 mph N/A   Overcast
9:35 AM 42.8 °F 34.8 °F 28.4 °F 57% 29.93 in 10.0 mi NNW 17.3 mph 24.2 mph N/A   Mostly Cloudy
9:55 AM 42.8 °F 35.1 °F 28.4 °F 57% 29.93 in 10.0 mi NNW 16.1 mph 24.2 mph N/A   Mostly Cloudy
10:15 AM 44.6 °F 37.8 °F 28.4 °F 53% 29.93 in 10.0 mi NNW 15.0 mph 25.3 mph N/A   Partly Cloudy
10:35 AM 44.6 °F 36.9 °F 26.6 °F 49% 29.93 in 10.0 mi NNW 18.4 mph 27.6 mph N/A   Partly Cloudy
10:55 AM 44.6 °F 37.4 °F 26.6 °F 49% 29.93 in 10.0 mi North 16.1 mph 23.0 mph N/A   Scattered Clouds
11:15 AM 46.4 °F 39.5 °F 26.6 °F 46% 29.94 in 10.0 mi North 17.3 mph 27.6 mph N/A   Mostly Cloudy
11:35 AM 44.6 °F 36.9 °F 28.4 °F 53% 29.94 in 10.0 mi NNW 18.4 mph 26.5 mph N/A   Overcast
11:55 AM 44.6 °F 37.8 °F 26.6 °F 49% 29.94 in 10.0 mi NNW 15.0 mph 21.9 mph N/A   Overcast
12:15 PM 44.6 °F 38.1 °F 26.6 °F 49% 29.94 in 10.0 mi NW 13.8 mph 25.3 mph N/A   Overcast
12:35 PM 44.6 °F 37.2 °F 26.6 °F 49% 29.95 in 10.0 mi NW 17.3 mph 27.6 mph N/A   Overcast
12:55 PM 44.6 °F 37.8 °F 24.8 °F 46% 29.95 in 10.0 mi NW 15.0 mph 31.1 mph N/A   Overcast
1:15 PM 44.6 °F 37.8 °F 24.8 °F 46% 29.96 in 10.0 mi NNW 15.0 mph 29.9 mph N/A   Overcast
1:35 PM 44.6 °F 36.9 °F 24.8 °F 46% 29.96 in 10.0 mi North 18.4 mph 25.3 mph N/A   Overcast
1:55 PM 44.6 °F 37.8 °F 24.8 °F 46% 29.97 in 10.0 mi NW 15.0 mph 28.8 mph N/A   Overcast
2:15 PM 44.6 °F 38.8 °F 24.8 °F 46% 29.97 in 10.0 mi NW 11.5 mph 24.2 mph N/A   Overcast
2:35 PM 44.6 °F 38.1 °F 26.6 °F 49% 29.98 in 10.0 mi NNW 13.8 mph 24.2 mph N/A   Overcast
2:55 PM 44.6 °F 37.8 °F 24.8 °F 46% 29.98 in 10.0 mi NNW 15.0 mph 28.8 mph N/A   Overcast
3:15 PM 46.4 °F 39.2 °F 26.6 °F 46% 29.98 in 10.0 mi North 18.4 mph 25.3 mph N/A   Overcast
3:35 PM 44.6 °F 38.1 °F 24.8 °F 46% 29.98 in 10.0 mi NNW 13.8 mph 24.2 mph N/A   Overcast
3:55 PM 44.6 °F 37.4 °F 24.8 °F 46% 29.99 in 10.0 mi North 16.1 mph 23.0 mph N/A   Mostly Cloudy
4:15 PM 44.6 °F 37.4 °F 26.6 °F 49% 30.00 in 10.0 mi North 16.1 mph 24.2 mph N/A   Overcast
4:35 PM 44.6 °F 36.9 °F 26.6 °F 49% 30.00 in 10.0 mi NNW 18.4 mph 23.0 mph N/A   Overcast
4:55 PM 44.6 °F 37.4 °F 26.6 °F 49% 30.00 in 10.0 mi North 16.1 mph 21.9 mph N/A   Overcast
5:15 PM 44.6 °F 37.8 °F 26.6 °F 49% 30.01 in 10.0 mi North 15.0 mph 21.9 mph N/A   Overcast
5:35 PM 44.6 °F 37.4 °F 26.6 °F 49% 30.01 in 10.0 mi North 16.1 mph 24.2 mph N/A   Overcast
5:55 PM 42.8 °F 34.5 °F 26.6 °F 53% 30.02 in 10.0 mi North 18.4 mph 23.0 mph N/A   Overcast
6:15 PM 42.8 °F 34.3 °F 26.6 °F 53% 30.03 in 10.0 mi North 19.6 mph 25.3 mph N/A   Overcast
6:35 PM 42.8 °F 37.0 °F 26.6 °F 53% 30.03 in 10.0 mi North 10.4 mph - N/A   Overcast
6:55 PM 42.8 °F 35.8 °F 26.6 °F 53% 30.04 in 10.0 mi North 13.8 mph 21.9 mph N/A   Overcast
7:15 PM 41.0 °F 33.1 °F 26.6 °F 57% 30.04 in 10.0 mi North 15.0 mph 21.9 mph N/A   Overcast
7:35 PM 41.0 °F 33.1 °F 26.6 °F 57% 30.05 in 10.0 mi North 15.0 mph 25.3 mph N/A   Overcast
7:55 PM 41.0 °F 34.7 °F 26.6 °F 57% 30.05 in 10.0 mi North 10.4 mph 17.3 mph N/A   Overcast
8:15 PM 39.2 °F 34.2 °F 26.6 °F 61% 30.05 in 10.0 mi North 6.9 mph - N/A   Overcast
8:35 PM 39.2 °F 33.6 °F 26.6 °F 61% 30.06 in 10.0 mi NNE 8.1 mph - N/A   Mostly Cloudy
8:55 PM 37.4 °F 32.1 °F 26.6 °F 65% 30.06 in 10.0 mi NNE 6.9 mph - N/A   Clear
9:15 PM 37.4 °F 30.8 °F 24.8 °F 60% 30.07 in 10.0 mi NNE 9.2 mph 17.3 mph N/A   Clear
9:35 PM 37.4 °F 32.1 °F 24.8 °F 60% 30.08 in 10.0 mi North 6.9 mph - N/A   Clear
9:55 PM 37.4 °F 32.8 °F 24.8 °F 60% 30.08 in 10.0 mi North 5.8 mph - N/A   Clear
10:15 PM 35.6 °F 31.7 °F 24.8 °F 65% 30.09 in 10.0 mi North 4.6 mph - N/A   Clear
10:35 PM 35.6 °F 32.8 °F 24.8 °F 65% 30.08 in 10.0 mi North 3.5 mph - N/A   Clear
10:55 PM 33.8 °F 30.8 °F 24.8 °F 70% 30.09 in 10.0 mi North 3.5 mph - N/A   Clear
11:15 PM 33.8 °F 30.8 °F 24.8 °F 70% 30.09 in 10.0 mi North 3.5 mph - N/A   Clear
11:35 PM 33.8 °F 30.8 °F 24.8 °F 70% 30.10 in 10.0 mi NNW 3.5 mph - N/A   Clear
11:55 PM 32.0 °F 28.7 °F 24.8 °F 75% 30.10 in 10.0 mi NNW 3.5 mph - N/A   Clear